Regional Weather Roundup
Issued by NWS Albany, NY

Home | Current Version | Previous Version | Text Only | Print | Product List | Glossary On
Versions: 1 2 3 4 5 6 7 8 9 10 11 12 13 14 15 16 17 18 19 20 21 22 23 24 25 26 27 28 29 30 31 32 33 34 35 36 37 38 39 40 41 42 43 44 45 46 47 48 49 50
000
ASUS41 KALY 181710
RWRALY

NEW YORK STATE HOURLY WEATHER ROUNDUP
NATIONAL WEATHER SERVICE ALBANY NY
100 PM EDT SAT APR 18 2015

NOTE: "FAIR" INDICATES FEW OR NO CLOUDS BELOW 12,000 FEET WITH NO
SIGNIFICANT WEATHER AND/OR NO OBSTRUCTIONS TO VISIBILITY.

NYZ032-033-038>043-046>054-057>066-NYZ062>081-181800-
EAST


CITY           SKY/WX    TMP DP  RH WIND       PRES   REMARKS
ALBANY         PTSUNNY   70  41  34 W6        29.88F
GLENS FALLS    PTSUNNY   66  43  43 S9        29.86F
POUGHKEEPSIE   SUNNY     75  42  30 W10       29.89F
NEWBURGH       MOSUNNY   72  45  37 W10G24    29.93F
MONTGOMERY     SUNNY     75  42  30 W8G20     29.90F
WHITE PLAINS   MOSUNNY   73  39  29 NW15      29.93F
ISLIP          PTSUNNY   74  39  28 W9        29.92F
NEW YORK CITY  PTSUNNY   74  40  29 NW6       29.93F
CENTRAL PARK   MOSUNNY   75  37  25 VRB6      29.96F
$$

NYZ005>009-017-018-044>046-055-056-181800-
CENTRAL


CITY           SKY/WX    TMP DP  RH WIND       PRES   REMARKS
FULTON         SUNNY     63  44  50 W20G31    29.95R
SYRACUSE       MOSUNNY   71  41  33 W25G36    29.92R
ROME           SUNNY     69  43  38 NW15G25   29.90F
ELMIRA         PTSUNNY   76  39  26 W18G35    29.93F
BINGHAMTON     PTSUNNY   70  40  33 W16G24    29.93F
MONTICELLO     SUNNY     70  39  32 W12G21    29.95F
$$

NYZ026>034-041>043-181800-
NORTH


CITY           SKY/WX    TMP DP  RH WIND       PRES   REMARKS
WATERTOWN      SUNNY     57  45  64 W13G20    29.93S
FORT DRUM      NOT AVBL
MASSENA        CLOUDY    56  37  49 NE7       29.90S
SARANAC LAKE   CLOUDY    55  29  36 W14G25    29.84S
PLATTSBURGH    LGT RAIN  50  29  44 NW5       29.86S
$$

NYZ001>004-010>016-019>021-181800-
WEST


CITY           SKY/WX    TMP DP  RH WIND       PRES   REMARKS
NIAGARA FALLS  MOSUNNY   68  41  37 N18       30.01R
BUFFALO        MOSUNNY   59  45  59 SW9       30.02R
DUNKIRK        SUNNY     63  44  50 W10       30.04R
JAMESTOWN      SUNNY     66  43  42 NW18      30.04F
WELLSVILLE     MOSUNNY   71  39  31 NW20G30   30.01F
ROCHESTER      MOSUNNY   69  41  36 N18G28    29.98R
PENN YAN       MOSUNNY   71  43  36 NW16G28   29.96R
$$

             KEY
       WCI = WIND CHILL INDEX
       VSB = VISIBILITY
       HX  = HEAT INDEX
$$



USA.gov is the U.S. government's official web portal to all federal, state and local government web resources and services.